GRL771 BIKF-BGKK

Flight info

Callsign GRL771
Flight time 1h 47m
Altitude 28000
Route RALOV3C RALOV DCT SOSIT DCT SABAG
Aircraft B350/L-SBGRW/S

Departure

Time 2026-04-29 15:39
Airport Keflavik International Airport (BIKF)

Arrival

Time 2026-04-29 17:26
Airport Kulusuk Airport (BGKK)
Time Latitude Longitude Altitude Speed Heading
2026-04-29 14:26 63.98201 -22.58863 196 ft 0 kts
2026-04-29 15:31 63.98200 -22.58863 169 ft 2 kts
2026-04-29 15:31 63.98184 -22.58864 169 ft 2 kts
2026-04-29 15:31 63.98168 -22.58864 169 ft 2 kts 360°
2026-04-29 15:31 63.98152 -22.58862 169 ft 2 kts 350°
2026-04-29 15:32 63.98146 -22.58854 168 ft 0 kts 297°
2026-04-29 15:34 63.98147 -22.58951 169 ft 0 kts 278°
2026-04-29 15:34 63.98172 -22.59101 173 ft 9 kts 341°
2026-04-29 15:34 63.98303 -22.59138 170 ft 25 kts 339°
2026-04-29 15:34 63.98524 -22.59306 172 ft 38 kts 359°
2026-04-29 15:35 63.98789 -22.59337 171 ft 42 kts 346°
2026-04-29 15:35 63.98972 -22.59602 171 ft 25 kts 307°
2026-04-29 15:35 63.99095 -22.59890 168 ft 39 kts 320°
2026-04-29 15:35 63.99173 -22.60250 171 ft 23 kts 265°
2026-04-29 15:36 63.99172 -22.60415 170 ft 0 kts 269°
2026-04-29 15:37 63.99172 -22.60429 170 ft 8 kts 267°
2026-04-29 15:38 63.99121 -22.60556 169 ft 15 kts 172°
2026-04-29 15:38 63.99000 -22.60553 165 ft 36 kts 181°
2026-04-29 15:38 63.98477 -22.60553 177 ft 107 kts 191°
2026-04-29 15:38 63.97636 -22.60452 578 ft 129 kts 184°
2026-04-29 15:39 63.96734 -22.60200 1195 ft 136 kts 185°
2026-04-29 15:39 63.95718 -22.60478 1452 ft 159 kts 193°
2026-04-29 15:39 63.94562 -22.60836 1686 ft 178 kts 191°
2026-04-29 15:39 63.93285 -22.61047 1924 ft 191 kts 183°
2026-04-29 15:40 63.91936 -22.60823 2169 ft 197 kts 180°
2026-04-29 15:40 63.90566 -22.60726 2452 ft 196 kts 192°
2026-04-29 15:40 63.89492 -22.62413 2782 ft 199 kts 239°
2026-04-29 15:40 63.89314 -22.65574 3192 ft 207 kts 265°
2026-04-29 15:41 63.89334 -22.68846 3568 ft 206 kts 264°
2026-04-29 15:41 63.89343 -22.72079 3969 ft 204 kts 264°
2026-04-29 15:41 63.89350 -22.75304 4373 ft 204 kts 264°
2026-04-29 15:41 63.89358 -22.78513 4774 ft 203 kts 264°
2026-04-29 15:42 63.89361 -22.81702 5180 ft 201 kts 264°
2026-04-29 15:42 63.89367 -22.84872 5608 ft 200 kts 264°
2026-04-29 15:42 63.89372 -22.88014 6045 ft 199 kts 263°
2026-04-29 15:42 63.89375 -22.91131 6495 ft 197 kts 263°
2026-04-29 15:43 63.89380 -22.94228 6930 ft 195 kts 263°
2026-04-29 15:43 63.89382 -22.97288 7370 ft 193 kts 263°
2026-04-29 15:43 63.89384 -22.99302 7667 ft 192 kts 262°
2026-04-29 15:43 63.89386 -23.03300 8260 ft 190 kts 262°
2026-04-29 15:44 63.89388 -23.06283 8718 ft 188 kts 262°
2026-04-29 15:44 63.89387 -23.08280 9031 ft 187 kts 261°
2026-04-29 15:44 63.89386 -23.11219 9503 ft 185 kts 261°
2026-04-29 15:44 63.89386 -23.15069 10089 ft 183 kts 261°
2026-04-29 15:45 63.89386 -23.17021 10382 ft 182 kts 260°
2026-04-29 15:45 63.89382 -23.19896 10797 ft 182 kts 259°
2026-04-29 15:45 63.89380 -23.22781 11205 ft 183 kts 259°
2026-04-29 15:45 63.89378 -23.25638 11616 ft 183 kts 259°
2026-04-29 15:46 63.89375 -23.28570 12045 ft 184 kts 258°
2026-04-29 15:46 63.89370 -23.31436 12470 ft 184 kts 258°
2026-04-29 15:46 63.89366 -23.34329 12898 ft 183 kts 258°
2026-04-29 15:46 63.89361 -23.37222 13339 ft 183 kts 257°
2026-04-29 15:47 63.89355 -23.40115 13771 ft 183 kts 257°
2026-04-29 15:47 63.89348 -23.42995 14166 ft 182 kts 257°
2026-04-29 15:47 63.89341 -23.45870 14562 ft 182 kts 256°
2026-04-29 15:47 63.89333 -23.48729 14965 ft 181 kts 256°
2026-04-29 15:48 63.89326 -23.51584 15375 ft 180 kts 256°
2026-04-29 15:48 63.89317 -23.54468 15799 ft 180 kts 255°
2026-04-29 15:48 63.89307 -23.57298 16221 ft 179 kts 255°
2026-04-29 15:48 63.89298 -23.60122 16645 ft 179 kts 255°
2026-04-29 15:49 63.89288 -23.62940 17079 ft 178 kts 254°
2026-04-29 15:49 63.89277 -23.65722 17515 ft 178 kts 254°
2026-04-29 15:49 63.89266 -23.68550 17967 ft 177 kts 253°
2026-04-29 15:49 63.89254 -23.71337 18380 ft 176 kts 253°
2026-04-29 15:50 63.89241 -23.74123 18745 ft 177 kts 253°
2026-04-29 15:50 63.89228 -23.76927 19092 ft 178 kts 253°
2026-04-29 15:50 63.89216 -23.79715 19438 ft 179 kts 253°
2026-04-29 15:50 63.89202 -23.82583 19798 ft 180 kts 253°
2026-04-29 15:51 63.89187 -23.85434 20159 ft 180 kts 252°
2026-04-29 15:51 63.89172 -23.88273 20519 ft 180 kts 252°
2026-04-29 15:51 63.89157 -23.91086 20880 ft 180 kts 252°
2026-04-29 15:51 63.89140 -23.93940 21265 ft 180 kts 252°
2026-04-29 15:52 63.89123 -23.96791 21634 ft 180 kts 252°
2026-04-29 15:52 63.89106 -23.99628 22014 ft 180 kts 251°
2026-04-29 15:52 63.89087 -24.02474 22378 ft 181 kts 251°
2026-04-29 15:52 63.89068 -24.05333 22742 ft 181 kts 251°
2026-04-29 15:53 63.89049 -24.08204 23118 ft 182 kts 251°
2026-04-29 15:53 63.89030 -24.11068 23475 ft 182 kts 251°
2026-04-29 15:53 63.89009 -24.13937 23783 ft 182 kts 251°
2026-04-29 15:53 63.88988 -24.16819 24097 ft 182 kts 251°
2026-04-29 15:54 63.88966 -24.19681 24409 ft 181 kts 251°
2026-04-29 15:54 63.88944 -24.22551 24713 ft 182 kts 251°
2026-04-29 15:54 63.88921 -24.25429 25009 ft 183 kts 251°
2026-04-29 15:54 63.88898 -24.28319 25307 ft 183 kts 251°
2026-04-29 15:55 63.88874 -24.31218 25611 ft 183 kts 251°
2026-04-29 15:55 63.88850 -24.34099 25918 ft 183 kts 251°
2026-04-29 15:55 63.88824 -24.36976 26229 ft 182 kts 251°
2026-04-29 15:55 63.88799 -24.39846 26541 ft 181 kts 251°
2026-04-29 15:56 63.88774 -24.42667 26851 ft 180 kts 250°
2026-04-29 15:56 63.88747 -24.45507 27176 ft 179 kts 250°
2026-04-29 15:56 63.88719 -24.48367 27477 ft 179 kts 250°
2026-04-29 15:56 63.88691 -24.51204 27745 ft 180 kts 250°
2026-04-29 15:57 63.88659 -24.54057 27869 ft 187 kts 251°
2026-04-29 15:57 63.88629 -24.57081 27912 ft 196 kts 252°
2026-04-29 15:57 63.88600 -24.60229 27944 ft 203 kts 252°
2026-04-29 15:57 63.88567 -24.63488 27955 ft 210 kts 252°
2026-04-29 15:58 63.88531 -24.66848 27957 ft 215 kts 253°
2026-04-29 15:58 63.88494 -24.70270 27959 ft 219 kts 253°
2026-04-29 15:58 63.88454 -24.73768 27954 ft 223 kts 253°
2026-04-29 15:58 63.88413 -24.77307 27948 ft 226 kts 253°
2026-04-29 15:59 63.88372 -24.80878 27954 ft 228 kts 253°
2026-04-29 15:59 63.88519 -24.84570 27956 ft 247 kts 267°
2026-04-29 15:59 63.89014 -24.88382 27950 ft 255 kts 271°
2026-04-29 15:59 63.89590 -24.92216 27950 ft 257 kts 272°
2026-04-29 16:00 63.90198 -24.96048 27953 ft 261 kts 275°
2026-04-29 16:00 63.90989 -24.99863 27957 ft 269 kts 279°
2026-04-29 16:00 63.91795 -25.03742 27953 ft 266 kts 277°
2026-04-29 16:00 63.92563 -25.07585 27950 ft 268 kts 278°
2026-04-29 16:01 63.93355 -25.11423 27946 ft 268 kts 278°
2026-04-29 16:01 63.94138 -25.15285 27935 ft 268 kts 278°
2026-04-29 16:01 63.94915 -25.19117 27939 ft 269 kts 278°
2026-04-29 16:01 63.95705 -25.23006 27938 ft 269 kts 278°
2026-04-29 16:02 63.96488 -25.26876 27936 ft 269 kts 278°
2026-04-29 16:02 63.97271 -25.30754 27932 ft 269 kts 278°
2026-04-29 16:02 63.98054 -25.34635 27932 ft 270 kts 278°
2026-04-29 16:02 63.98833 -25.38510 27936 ft 270 kts 278°
2026-04-29 16:03 63.99625 -25.42450 27930 ft 270 kts 278°
2026-04-29 16:03 64.00419 -25.46410 27926 ft 270 kts 278°
2026-04-29 16:03 64.01192 -25.50273 27928 ft 270 kts 278°
2026-04-29 16:03 64.01987 -25.54258 27926 ft 270 kts 278°
2026-04-29 16:04 64.02767 -25.58167 27930 ft 270 kts 278°
2026-04-29 16:04 64.03543 -25.62067 27917 ft 271 kts 278°
2026-04-29 16:04 64.04322 -25.65992 27918 ft 271 kts 278°
2026-04-29 16:04 64.05099 -25.69910 27918 ft 271 kts 278°
2026-04-29 16:05 64.05865 -25.73781 27920 ft 271 kts 278°
2026-04-29 16:05 64.06650 -25.77759 27912 ft 271 kts 278°
2026-04-29 16:05 64.07424 -25.81687 27917 ft 271 kts 278°
2026-04-29 16:05 64.08198 -25.85621 27915 ft 271 kts 278°
2026-04-29 16:06 64.08972 -25.89565 27916 ft 272 kts 278°
2026-04-29 16:06 64.09744 -25.93503 27908 ft 272 kts 278°
2026-04-29 16:06 64.10516 -25.97453 27907 ft 272 kts 278°
2026-04-29 16:06 64.11286 -26.01399 27911 ft 272 kts 278°
2026-04-29 16:07 64.12056 -26.05350 27907 ft 272 kts 279°
2026-04-29 16:07 64.12569 -26.07988 27899 ft 272 kts 278°
2026-04-29 16:07 64.13599 -26.13295 27902 ft 272 kts 279°
2026-04-29 16:07 64.14367 -26.17259 27903 ft 273 kts 279°
2026-04-29 16:08 64.15135 -26.21238 27901 ft 273 kts 279°
2026-04-29 16:08 64.15904 -26.25220 27899 ft 273 kts 279°
2026-04-29 16:08 64.16669 -26.29197 27898 ft 273 kts 279°
2026-04-29 16:08 64.17437 -26.33193 27902 ft 273 kts 279°
2026-04-29 16:09 64.18202 -26.37181 27901 ft 274 kts 279°
2026-04-29 16:09 64.18966 -26.41176 27894 ft 274 kts 279°
2026-04-29 16:09 64.19731 -26.45181 27898 ft 274 kts 279°
2026-04-29 16:09 64.20494 -26.49182 27895 ft 274 kts 279°
2026-04-29 16:10 64.21267 -26.53247 27895 ft 274 kts 279°
2026-04-29 16:10 64.22031 -26.57267 27885 ft 274 kts 279°
2026-04-29 16:10 64.22792 -26.61287 27889 ft 274 kts 279°
2026-04-29 16:10 64.23553 -26.65311 27892 ft 275 kts 279°
2026-04-29 16:11 64.24313 -26.69336 27892 ft 275 kts 279°
2026-04-29 16:11 64.25073 -26.73374 27886 ft 275 kts 279°
2026-04-29 16:11 64.25833 -26.77416 27893 ft 275 kts 279°
2026-04-29 16:11 64.26593 -26.81467 27892 ft 276 kts 279°
2026-04-29 16:12 64.27353 -26.85525 27884 ft 276 kts 279°
2026-04-29 16:12 64.27855 -26.88216 27879 ft 276 kts 279°
2026-04-29 16:12 64.28867 -26.93643 27885 ft 276 kts 279°
2026-04-29 16:12 64.29373 -26.96362 27888 ft 276 kts 279°
2026-04-29 16:13 64.30138 -27.00476 27884 ft 277 kts 279°
2026-04-29 16:13 64.30895 -27.04557 27877 ft 277 kts 279°
2026-04-29 16:13 64.31650 -27.08640 27875 ft 277 kts 279°
2026-04-29 16:13 64.32405 -27.12727 27880 ft 277 kts 279°
2026-04-29 16:14 64.33158 -27.16815 27883 ft 277 kts 279°
2026-04-29 16:14 64.33894 -27.20816 27870 ft 277 kts 279°
2026-04-29 16:14 64.34666 -27.25025 27873 ft 277 kts 279°
2026-04-29 16:14 64.35430 -27.29192 27878 ft 278 kts 279°
2026-04-29 16:15 64.36180 -27.33298 27875 ft 278 kts 279°
2026-04-29 16:15 64.36930 -27.37408 27867 ft 278 kts 279°
2026-04-29 16:15 64.37678 -27.41521 27874 ft 278 kts 279°
2026-04-29 16:15 64.38426 -27.45640 27874 ft 278 kts 279°
2026-04-29 16:16 64.39183 -27.49814 27871 ft 278 kts 279°
2026-04-29 16:16 64.39910 -27.53834 27870 ft 278 kts 279°
2026-04-29 16:16 64.40676 -27.58077 27866 ft 278 kts 279°
2026-04-29 16:16 64.41420 -27.62212 27871 ft 279 kts 279°
2026-04-29 16:17 64.42165 -27.66354 27875 ft 279 kts 279°
2026-04-29 16:17 64.42907 -27.70489 27860 ft 279 kts 279°
2026-04-29 16:17 64.43650 -27.74647 27869 ft 279 kts 279°
2026-04-29 16:17 64.44394 -27.78813 27869 ft 279 kts 279°
2026-04-29 16:18 64.45136 -27.82972 27866 ft 279 kts 279°
2026-04-29 16:18 64.45875 -27.87133 27862 ft 280 kts 279°
2026-04-29 16:18 64.46615 -27.91301 27862 ft 280 kts 279°
2026-04-29 16:18 64.47354 -27.95478 27865 ft 280 kts 279°
2026-04-29 16:19 64.48104 -27.99716 27866 ft 280 kts 279°
2026-04-29 16:19 64.48831 -28.03843 27854 ft 280 kts 279°
2026-04-29 16:19 64.49589 -28.08154 27866 ft 280 kts 279°
2026-04-29 16:19 64.50324 -28.12336 27855 ft 281 kts 279°
2026-04-29 16:20 64.51049 -28.16477 27867 ft 281 kts 279°
2026-04-29 16:20 64.51784 -28.20684 27851 ft 281 kts 279°
2026-04-29 16:20 64.52527 -28.24945 27857 ft 281 kts 279°
2026-04-29 16:20 64.53259 -28.29152 27854 ft 281 kts 279°
2026-04-29 16:21 64.53992 -28.33372 27857 ft 281 kts 279°
2026-04-29 16:21 64.54723 -28.37588 27848 ft 282 kts 279°
2026-04-29 16:21 64.55453 -28.41813 27853 ft 282 kts 279°
2026-04-29 16:21 64.56173 -28.45986 27854 ft 282 kts 280°
2026-04-29 16:22 64.56904 -28.50230 27850 ft 282 kts 280°
2026-04-29 16:22 64.57631 -28.54468 27847 ft 282 kts 280°
2026-04-29 16:22 64.58359 -28.58711 27846 ft 282 kts 280°
2026-04-29 16:22 64.59095 -28.63017 27846 ft 283 kts 280°
2026-04-29 16:23 64.59821 -28.67270 27849 ft 283 kts 280°
2026-04-29 16:23 64.60546 -28.71533 27848 ft 283 kts 280°
2026-04-29 16:23 64.61263 -28.75752 27848 ft 283 kts 280°
2026-04-29 16:23 64.61996 -28.80077 27843 ft 283 kts 280°
2026-04-29 16:24 64.62718 -28.84344 27847 ft 283 kts 280°
2026-04-29 16:24 64.63440 -28.88625 27844 ft 283 kts 280°
2026-04-29 16:24 64.64159 -28.92900 27842 ft 284 kts 280°
2026-04-29 16:24 64.64881 -28.97193 27845 ft 284 kts 280°
2026-04-29 16:25 64.65599 -29.01481 27843 ft 284 kts 280°
2026-04-29 16:25 64.66317 -29.05773 27836 ft 284 kts 280°
2026-04-29 16:25 64.67025 -29.10018 27837 ft 284 kts 280°
2026-04-29 16:25 64.67751 -29.14383 27838 ft 284 kts 280°
2026-04-29 16:26 64.68467 -29.18691 27835 ft 285 kts 280°
2026-04-29 16:26 64.69183 -29.23010 27832 ft 285 kts 280°
2026-04-29 16:26 64.69896 -29.27325 27835 ft 285 kts 280°
2026-04-29 16:26 64.70610 -29.31656 27835 ft 285 kts 280°
2026-04-29 16:27 64.71315 -29.35936 27833 ft 286 kts 280°
2026-04-29 16:27 64.72028 -29.40280 27827 ft 286 kts 280°
2026-04-29 16:27 64.72739 -29.44624 27831 ft 286 kts 280°
2026-04-29 16:27 64.73459 -29.49028 27833 ft 286 kts 280°
2026-04-29 16:28 64.74172 -29.53400 27829 ft 287 kts 280°
2026-04-29 16:28 64.74881 -29.57759 27825 ft 287 kts 280°
2026-04-29 16:28 64.75590 -29.62129 27824 ft 287 kts 280°
2026-04-29 16:28 64.76300 -29.66515 27826 ft 287 kts 280°
2026-04-29 16:29 64.77008 -29.70896 27825 ft 288 kts 280°
2026-04-29 16:29 64.77705 -29.75219 27820 ft 288 kts 280°
2026-04-29 16:29 64.78421 -29.79678 27820 ft 288 kts 280°
2026-04-29 16:29 64.79118 -29.84020 27826 ft 288 kts 280°
2026-04-29 16:30 64.79824 -29.88435 27826 ft 289 kts 280°
2026-04-29 16:30 64.80525 -29.92853 27816 ft 288 kts 279°
2026-04-29 16:30 64.81198 -29.97282 27817 ft 288 kts 279°
2026-04-29 16:30 64.81853 -30.01728 27821 ft 287 kts 277°
2026-04-29 16:31 64.82327 -30.06284 27821 ft 282 kts 271°
2026-04-29 16:31 64.82770 -30.10717 27813 ft 284 kts 274°
2026-04-29 16:31 64.83261 -30.15275 27812 ft 284 kts 273°
2026-04-29 16:31 64.83709 -30.19723 27812 ft 284 kts 273°
2026-04-29 16:32 64.84176 -30.24231 27814 ft 284 kts 273°
2026-04-29 16:32 64.84492 -30.27291 27806 ft 284 kts 273°
2026-04-29 16:32 64.85102 -30.33281 27813 ft 285 kts 273°
2026-04-29 16:32 64.85564 -30.37809 27812 ft 285 kts 273°
2026-04-29 16:33 64.86484 -30.46886 27804 ft 285 kts 273°
2026-04-29 16:33 64.86942 -30.51431 27805 ft 286 kts 273°
2026-04-29 16:33 64.87400 -30.55984 27807 ft 286 kts 273°
2026-04-29 16:34 64.87856 -30.60534 27805 ft 286 kts 273°
2026-04-29 16:34 64.88311 -30.65097 27801 ft 286 kts 273°
2026-04-29 16:34 64.88764 -30.69649 27803 ft 286 kts 273°
2026-04-29 16:34 64.89200 -30.74054 27807 ft 287 kts 273°
2026-04-29 16:35 64.89669 -30.78795 27809 ft 287 kts 273°
2026-04-29 16:35 64.90121 -30.83379 27797 ft 287 kts 273°
2026-04-29 16:35 64.90574 -30.88015 27799 ft 287 kts 273°
2026-04-29 16:35 64.91018 -30.92548 27798 ft 288 kts 273°
2026-04-29 16:36 64.91466 -30.97147 27799 ft 288 kts 273°
2026-04-29 16:36 64.91918 -31.01797 27791 ft 288 kts 272°
2026-04-29 16:36 64.92357 -31.06343 27796 ft 288 kts 272°
2026-04-29 16:36 64.92802 -31.10952 27796 ft 288 kts 272°
2026-04-29 16:37 64.93245 -31.15562 27795 ft 289 kts 272°
2026-04-29 16:37 64.93688 -31.20186 27788 ft 289 kts 272°
2026-04-29 16:37 64.94127 -31.24804 27789 ft 289 kts 272°
2026-04-29 16:37 64.94424 -31.27928 27790 ft 289 kts 272°
2026-04-29 16:38 64.95008 -31.34086 27791 ft 289 kts 272°
2026-04-29 16:38 64.95446 -31.38723 27786 ft 290 kts 272°
2026-04-29 16:38 64.95882 -31.43365 27787 ft 290 kts 272°
2026-04-29 16:38 64.96318 -31.48014 27787 ft 290 kts 272°
2026-04-29 16:39 64.96753 -31.52679 27789 ft 290 kts 272°
2026-04-29 16:39 64.97187 -31.57343 27783 ft 291 kts 272°
2026-04-29 16:39 64.97473 -31.60425 27779 ft 291 kts 272°
2026-04-29 16:39 64.98050 -31.66674 27782 ft 291 kts 272°
2026-04-29 16:40 64.98335 -31.69767 27785 ft 291 kts 272°
2026-04-29 16:40 64.98764 -31.74449 27775 ft 292 kts 272°
2026-04-29 16:40 64.99192 -31.79136 27780 ft 292 kts 272°
2026-04-29 16:40 64.99620 -31.83837 27782 ft 292 kts 272°
2026-04-29 16:41 65.00047 -31.88534 27780 ft 292 kts 272°
2026-04-29 16:41 65.00471 -31.93231 27772 ft 293 kts 272°
2026-04-29 16:41 65.00895 -31.97943 27773 ft 293 kts 272°
2026-04-29 16:41 65.01318 -32.02663 27777 ft 293 kts 272°
2026-04-29 16:42 65.01740 -32.07384 27775 ft 294 kts 272°
2026-04-29 16:42 65.02161 -32.12111 27767 ft 294 kts 272°
2026-04-29 16:42 65.02581 -32.16849 27770 ft 294 kts 272°
2026-04-29 16:42 65.02998 -32.21582 27769 ft 294 kts 272°
2026-04-29 16:43 65.03416 -32.26326 27769 ft 295 kts 271°
2026-04-29 16:43 65.03832 -32.31071 27763 ft 295 kts 271°
2026-04-29 16:43 65.04252 -32.35891 27768 ft 295 kts 271°
2026-04-29 16:43 65.04666 -32.40652 27770 ft 295 kts 271°
2026-04-29 16:44 65.05079 -32.45417 27767 ft 296 kts 271°
2026-04-29 16:44 65.05491 -32.50198 27760 ft 296 kts 271°
2026-04-29 16:44 65.05906 -32.55038 27765 ft 296 kts 271°
2026-04-29 16:44 65.06316 -32.59823 27765 ft 296 kts 271°
2026-04-29 16:45 65.06724 -32.64613 27763 ft 297 kts 271°
2026-04-29 16:45 65.07127 -32.69352 27759 ft 297 kts 271°
2026-04-29 16:45 65.07536 -32.74208 27764 ft 297 kts 271°
2026-04-29 16:45 65.07941 -32.79015 27759 ft 297 kts 271°
2026-04-29 16:46 65.08344 -32.83822 27759 ft 298 kts 271°
2026-04-29 16:46 65.08746 -32.88642 27757 ft 298 kts 271°
2026-04-29 16:46 65.09146 -32.93460 27755 ft 298 kts 271°
2026-04-29 16:46 65.09547 -32.98294 27758 ft 298 kts 271°
2026-04-29 16:47 65.09944 -33.03117 27760 ft 298 kts 270°
2026-04-29 16:47 65.10342 -33.07956 27750 ft 299 kts 270°
2026-04-29 16:47 65.10736 -33.12793 27757 ft 299 kts 270°
2026-04-29 16:47 65.11130 -33.17635 27752 ft 299 kts 270°
2026-04-29 16:48 65.11524 -33.22493 27752 ft 299 kts 270°
2026-04-29 16:48 65.11916 -33.27339 27746 ft 299 kts 270°
2026-04-29 16:48 65.12306 -33.32199 27750 ft 299 kts 270°
2026-04-29 16:48 65.12694 -33.37054 27753 ft 300 kts 270°
2026-04-29 16:49 65.13081 -33.41914 27746 ft 300 kts 270°
2026-04-29 16:49 65.13468 -33.46788 27744 ft 300 kts 270°
2026-04-29 16:49 65.13852 -33.51661 27744 ft 300 kts 270°
2026-04-29 16:49 65.14236 -33.56541 27743 ft 300 kts 269°
2026-04-29 16:50 65.14618 -33.61423 27744 ft 301 kts 269°
2026-04-29 16:50 65.14999 -33.66309 27739 ft 301 kts 269°
2026-04-29 16:50 65.15378 -33.71200 27741 ft 301 kts 269°
2026-04-29 16:50 65.15756 -33.76098 27741 ft 301 kts 269°
2026-04-29 16:51 65.16133 -33.81000 27738 ft 301 kts 269°
2026-04-29 16:51 65.16509 -33.85907 27733 ft 302 kts 269°
2026-04-29 16:51 65.16882 -33.90820 27738 ft 302 kts 269°
2026-04-29 16:51 65.17256 -33.95739 27738 ft 302 kts 269°
2026-04-29 16:52 65.17628 -34.00670 27739 ft 303 kts 269°
2026-04-29 16:52 65.17998 -34.05594 27736 ft 303 kts 268°
2026-04-29 16:52 65.18367 -34.10528 27739 ft 303 kts 268°
2026-04-29 16:52 65.18734 -34.15468 27737 ft 303 kts 268°
2026-04-29 16:53 65.19101 -34.20414 27736 ft 303 kts 268°
2026-04-29 16:53 65.19467 -34.25369 27731 ft 304 kts 268°
2026-04-29 16:53 65.19829 -34.30319 27733 ft 304 kts 268°
2026-04-29 16:53 65.20191 -34.35275 27735 ft 304 kts 268°
2026-04-29 16:54 65.20553 -34.40247 27736 ft 304 kts 268°
2026-04-29 16:54 65.20913 -34.45225 27729 ft 305 kts 267°
2026-04-29 16:54 65.21271 -34.50213 27693 ft 306 kts 267°
2026-04-29 16:54 65.21630 -34.55231 27614 ft 309 kts 267°
2026-04-29 16:55 65.21992 -34.60303 27493 ft 312 kts 267°
2026-04-29 16:55 65.22357 -34.65435 27341 ft 315 kts 267°
2026-04-29 16:55 65.22722 -34.70616 27183 ft 318 kts 267°
2026-04-29 16:55 65.23090 -34.75848 27031 ft 321 kts 267°
2026-04-29 16:56 65.23456 -34.81101 26870 ft 322 kts 267°
2026-04-29 16:56 65.23817 -34.86279 26711 ft 324 kts 267°
2026-04-29 16:56 65.24195 -34.91775 26541 ft 325 kts 267°
2026-04-29 16:56 65.24562 -34.97105 26399 ft 326 kts 267°
2026-04-29 16:57 65.24927 -35.02458 26245 ft 327 kts 267°
2026-04-29 16:57 65.25292 -35.07814 26092 ft 328 kts 266°
2026-04-29 16:57 65.25654 -35.13191 25946 ft 329 kts 266°
2026-04-29 16:57 65.26024 -35.18589 25792 ft 331 kts 269°
2026-04-29 16:58 65.26572 -35.24005 25641 ft 337 kts 272°
2026-04-29 16:58 65.27066 -35.29447 25452 ft 334 kts 268°
2026-04-29 16:58 65.27549 -35.34890 25312 ft 337 kts 270°
2026-04-29 16:58 65.28050 -35.40368 25162 ft 336 kts 269°
2026-04-29 16:59 65.28531 -35.45836 25022 ft 337 kts 270°
2026-04-29 16:59 65.29027 -35.51322 24871 ft 338 kts 269°
2026-04-29 16:59 65.29509 -35.56816 24717 ft 339 kts 269°
2026-04-29 16:59 65.30000 -35.62335 24592 ft 339 kts 269°
2026-04-29 17:00 65.30486 -35.67862 24444 ft 340 kts 269°
2026-04-29 17:00 65.30969 -35.73397 24297 ft 340 kts 269°
2026-04-29 17:00 65.31459 -35.78941 24157 ft 341 kts 269°
2026-04-29 17:00 65.31935 -35.84500 24018 ft 342 kts 269°
2026-04-29 17:01 65.32423 -35.90092 23883 ft 342 kts 269°
2026-04-29 17:01 65.32901 -35.95687 23728 ft 343 kts 269°
2026-04-29 17:01 65.33406 -36.01244 23564 ft 336 kts 271°
2026-04-29 17:01 65.33880 -36.06568 23404 ft 319 kts 268°
2026-04-29 17:02 65.34272 -36.11708 23241 ft 308 kts 266°
2026-04-29 17:02 65.34644 -36.16800 23064 ft 316 kts 267°
2026-04-29 17:02 65.35121 -36.22045 22868 ft 328 kts 270°
2026-04-29 17:02 65.35597 -36.27440 22680 ft 331 kts 268°
2026-04-29 17:03 65.36041 -36.32900 22487 ft 336 kts 270°
2026-04-29 17:03 65.36510 -36.38408 22296 ft 339 kts 270°
2026-04-29 17:03 65.36967 -36.43988 22058 ft 342 kts 270°
2026-04-29 17:03 65.37429 -36.49576 21809 ft 344 kts 271°
2026-04-29 17:04 65.37890 -36.55213 21583 ft 345 kts 271°
2026-04-29 17:04 65.38350 -36.60859 21388 ft 344 kts 271°
2026-04-29 17:04 65.38807 -36.66486 21207 ft 343 kts 271°
2026-04-29 17:04 65.39258 -36.72105 21024 ft 343 kts 272°
2026-04-29 17:05 65.39710 -36.77717 20843 ft 342 kts 272°
2026-04-29 17:05 65.40156 -36.83331 20663 ft 342 kts 272°
2026-04-29 17:05 65.40602 -36.88919 20483 ft 341 kts 272°
2026-04-29 17:05 65.41043 -36.94521 20302 ft 341 kts 272°
2026-04-29 17:06 65.41485 -37.00120 20113 ft 341 kts 273°
2026-04-29 17:06 65.41922 -37.05719 19916 ft 341 kts 273°
2026-04-29 17:06 65.42360 -37.11313 19710 ft 341 kts 273°
2026-04-29 17:06 65.42937 -37.16874 19510 ft 347 kts 284°
2026-04-29 17:07 65.43942 -37.22192 19308 ft 351 kts 293°
2026-04-29 17:07 65.44695 -37.25629 19176 ft 351 kts 295°
2026-04-29 17:07 65.46139 -37.32647 18904 ft 346 kts 285°
2026-04-29 17:07 65.46701 -37.38214 18710 ft 338 kts 271°
2026-04-29 17:08 65.46747 -37.43777 18516 ft 329 kts 258°
2026-04-29 17:08 65.46637 -37.49276 18323 ft 330 kts 261°
2026-04-29 17:08 65.46574 -37.54810 18102 ft 331 kts 262°
2026-04-29 17:08 65.46520 -37.60371 17791 ft 334 kts 262°
2026-04-29 17:09 65.46468 -37.65964 17365 ft 330 kts 263°
2026-04-29 17:09 65.46440 -37.71376 16945 ft 318 kts 262°
2026-04-29 17:09 65.46404 -37.76613 16538 ft 309 kts 262°
2026-04-29 17:09 65.46364 -37.81731 16137 ft 304 kts 262°
2026-04-29 17:10 65.46325 -37.86772 15737 ft 300 kts 262°
2026-04-29 17:10 65.46287 -37.91759 15313 ft 297 kts 262°
2026-04-29 17:10 65.46261 -37.95041 15040 ft 295 kts 262°
2026-04-29 17:10 65.46209 -38.01602 14367 ft 296 kts 262°
2026-04-29 17:11 65.46170 -38.06559 13864 ft 296 kts 262°
2026-04-29 17:11 65.46200 -38.11502 13362 ft 300 kts 274°
2026-04-29 17:11 65.46672 -38.14736 12997 ft 308 kts 297°
2026-04-29 17:11 65.48153 -38.18409 12455 ft 308 kts 331°
2026-04-29 17:12 65.50151 -38.19864 11920 ft 297 kts
2026-04-29 17:12 65.52062 -38.18768 11388 ft 276 kts 38°
2026-04-29 17:12 65.53307 -38.15578 10873 ft 253 kts 73°
2026-04-29 17:12 65.53560 -38.12920 10531 ft 241 kts 91°
2026-04-29 17:13 65.53615 -38.07550 9835 ft 238 kts 94°
2026-04-29 17:13 65.53631 -38.03562 9307 ft 237 kts 93°
2026-04-29 17:13 65.53651 -37.99605 8819 ft 234 kts 93°
2026-04-29 17:13 65.53679 -37.95728 8416 ft 229 kts 92°
2026-04-29 17:14 65.53720 -37.91924 8008 ft 226 kts 91°
2026-04-29 17:14 65.53903 -37.88139 7476 ft 229 kts 85°
2026-04-29 17:14 65.54100 -37.84326 6953 ft 228 kts 88°
2026-04-29 17:14 65.54264 -37.80524 6442 ft 228 kts 87°
2026-04-29 17:15 65.54448 -37.76729 5929 ft 226 kts 89°
2026-04-29 17:15 65.54056 -37.73220 5408 ft 222 kts 127°
2026-04-29 17:15 65.52705 -37.71394 4884 ft 234 kts 163°
2026-04-29 17:15 65.51079 -37.70867 4356 ft 237 kts 167°
2026-04-29 17:16 65.49429 -37.70528 3813 ft 239 kts 169°
2026-04-29 17:16 65.47757 -37.70723 3285 ft 250 kts 192°
2026-04-29 17:16 65.46413 -37.72494 2871 ft 256 kts 205°
2026-04-29 17:16 65.44803 -37.73506 2640 ft 228 kts 165°
2026-04-29 17:17 65.43546 -37.71886 2545 ft 196 kts 120°
2026-04-29 17:17 65.43345 -37.68902 2507 ft 181 kts 71°
2026-04-29 17:17 65.44244 -37.66868 2476 ft 184 kts 34°
2026-04-29 17:17 65.45363 -37.65517 2451 ft 174 kts 33°
2026-04-29 17:18 65.46429 -37.64252 2439 ft 167 kts 34°
2026-04-29 17:18 65.47405 -37.63064 2446 ft 142 kts 35°
2026-04-29 17:18 65.48222 -37.62026 2443 ft 126 kts 37°
2026-04-29 17:18 65.48960 -37.61017 2441 ft 119 kts 39°
2026-04-29 17:19 65.49657 -37.59984 2439 ft 116 kts 40°
2026-04-29 17:19 65.50330 -37.58917 2444 ft 115 kts 42°
2026-04-29 17:19 65.50985 -37.57808 2439 ft 115 kts 43°
2026-04-29 17:19 65.51625 -37.56658 2446 ft 114 kts 44°
2026-04-29 17:20 65.52251 -37.55466 2453 ft 114 kts 46°
2026-04-29 17:20 65.52860 -37.54237 2447 ft 114 kts 47°
2026-04-29 17:20 65.53455 -37.52961 2451 ft 114 kts 49°
2026-04-29 17:20 65.54031 -37.51643 2455 ft 114 kts 50°
2026-04-29 17:21 65.54572 -37.50326 2581 ft 108 kts 52°
2026-04-29 17:21 65.55084 -37.49002 2647 ft 109 kts 53°
2026-04-29 17:21 65.55480 -37.47463 2669 ft 109 kts 68°
2026-04-29 17:21 65.55734 -37.45734 2681 ft 110 kts 75°
2026-04-29 17:22 65.55921 -37.43941 2691 ft 111 kts 77°
2026-04-29 17:22 65.56067 -37.42110 2693 ft 111 kts 81°
2026-04-29 17:22 65.56148 -37.40250 2698 ft 112 kts 83°
2026-04-29 17:22 65.56216 -37.38375 2702 ft 112 kts 83°
2026-04-29 17:23 65.56297 -37.36506 2703 ft 112 kts 82°
2026-04-29 17:23 65.56386 -37.34639 2697 ft 112 kts 82°
2026-04-29 17:23 65.56468 -37.32769 2699 ft 112 kts 82°
2026-04-29 17:23 65.56541 -37.30905 2697 ft 111 kts 83°
2026-04-29 17:24 65.56606 -37.29042 2697 ft 111 kts 83°
2026-04-29 17:24 65.56671 -37.27158 2589 ft 118 kts 83°
2026-04-29 17:24 65.56766 -37.25078 2222 ft 130 kts 87°
2026-04-29 17:24 65.56782 -37.22810 1750 ft 138 kts 82°
2026-04-29 17:25 65.56893 -37.20513 1338 ft 138 kts 83°
2026-04-29 17:25 65.57029 -37.18176 680 ft 149 kts 79°
2026-04-29 17:25 65.57190 -37.15661 436 ft 153 kts 82°
2026-04-29 17:25 65.57298 -37.13022 128 ft 160 kts 90°
2026-04-29 17:26 65.57383 -37.10667 112 ft 115 kts 97°
2026-04-29 17:26 65.57485 -37.09924 111 ft 14 kts 321°
2026-04-29 17:26 65.57481 -37.10051 117 ft 14 kts 254°
2026-04-29 17:26 65.57453 -37.10349 109 ft 22 kts 256°
2026-04-29 17:27 65.57420 -37.10713 108 ft 26 kts 255°
2026-04-29 17:27 65.57398 -37.11168 107 ft 29 kts 266°
2026-04-29 17:27 65.57380 -37.11668 111 ft 29 kts 267°
2026-04-29 17:27 65.57366 -37.12156 114 ft 30 kts 263°
2026-04-29 17:28 65.57343 -37.12666 115 ft 31 kts 266°
2026-04-29 17:28 65.57312 -37.13192 117 ft 32 kts 260°
2026-04-29 17:28 65.57387 -37.13459 114 ft 7 kts 31°
2026-04-29 17:28 65.57412 -37.13456 116 ft 0 kts 316°
2026-04-29 17:29 65.57417 -37.13468 116 ft 0 kts 315°